This is the latest recevied weather packets stored in our database for station/object SP5MRF. If no packets are shown the sender has not sent any weather packets the latest 10 day(s).
| Time | Temp. | Humidity | Pressure | Rain* | Wind** | Luminosity | Snow |
|---|---|---|---|---|---|---|---|
| 1788362933 | 21.11° C | 58% | 1014 hPa | 0 mm | - | - | - |
| 1788362449 | 21.11° C | 57% | 1013.9 hPa | 0 mm | - | - | - |
| 1788361970 | 21.67° C | 56% | 1014 hPa | 0 mm | - | - | - |
| 1788361489 | 21.67° C | 56% | 1014 hPa | 0 mm | - | - | - |
| 1788361009 | 22.22° C | 56% | 1014 hPa | 0 mm | - | - | - |
| 1788360529 | 21.67° C | 55% | 1014.1 hPa | 0 mm | - | - | - |
| 1788360049 | 22.22° C | 55% | 1014 hPa | 0 mm | - | - | - |
| 1788359569 | 22.22° C | 54% | 1014.3 hPa | 0 mm | - | - | - |
| 1788358609 | 22.78° C | 54% | 1014.3 hPa | 0 mm | - | - | - |
| 1788358131 | 22.78° C | 55% | 1014.2 hPa | 0 mm | - | - | - |
| 1788357651 | 22.78° C | 54% | 1014.3 hPa | 0 mm | - | - | - |
| 1788357171 | 22.78° C | 54% | 1014.1 hPa | 0 mm | - | - | - |
| 1788356689 | 22.78° C | 52% | 1014.3 hPa | 0 mm | - | - | - |
| 1788356210 | 23.33° C | 52% | 1014.3 hPa | 0 mm | - | - | - |
| 1788355729 | 23.89° C | 52% | 1014.3 hPa | 0 mm | - | - | - |
| 1788355250 | 23.89° C | 53% | 1014.4 hPa | 0 mm | - | - | - |
| 1788354771 | 24.44° C | 54% | 1014.3 hPa | 0 mm | - | - | - |
| 1788354290 | 23.33° C | 55% | 1014.3 hPa | 0 mm | - | - | - |
| 1788353809 | 22.78° C | 56% | 1014.3 hPa | 0 mm | - | - | - |
| 1788352850 | 23.33° C | 55% | 1014.3 hPa | 0 mm | - | - | - |
| 1788351890 | 25° C | 52% | 1014.5 hPa | 0 mm | - | - | - |
| 1788351411 | 25° C | 53% | 1014.4 hPa | 0 mm | - | - | - |
| 1788350930 | 24.44° C | 53% | 1014.5 hPa | 0 mm | - | - | - |
| 1788350475 | 24.44° C | 53% | 1014.8 hPa | 0 mm | - | - | - |
| 1788349970 | 24.44° C | 53% | 1014.7 hPa | 0 mm | - | - | - |
* Rain latest hour (hover to see other rain measurements)
** Current wind speed in m/s (hover to see current wind gust speed)